Simultaneous Nadir Overpasses (SNOs) Predictions

Prediction of SNOs between AQUA and METOP-C Satellite Orbit:

Table of predicted SNOs for the next 14.0 days since TLE Epoch: 1/6/2024
Index Date (AQUA) Time (AQUA) Lat,Lon (AQUA) SZA (AQUA ) Date (METOP-C) Time (METOP-C) Lat,Lon (METOP-C) SZA (METOP-C ) Distance(km) Time Diff (sec)
1 01/06/2024 19:27:35 -74.99, 65.24 82.57 01/06/2024 19:26:49 -74.99, 65.29 82.58 1.64 46
2 01/06/2024 20:17:00 75.04,-127.23 97.47 01/06/2024 20:17:29 75.03,-127.26 97.47 1.27 29
3 01/09/2024 11:39:45 -74.87,-177.44 83.05 01/09/2024 11:38:33 -74.77,-178.22 83.12 24.97 72
4 01/09/2024 12:29:12 75.02, -10.18 97.11 01/09/2024 12:29:09 75.00, -10.24 97.10 2.24 3
5 01/09/2024 13:18:36 -75.09, 157.26 82.82 01/09/2024 13:19:48 -75.09, 157.33 82.83 2.08 72
6 01/12/2024 04:41:22 74.99, 106.87 96.68 01/12/2024 04:40:47 75.02, 106.89 96.71 2.93 35
7 01/12/2024 05:30:46 -75.07, -85.68 83.25 01/12/2024 05:31:27 -75.06, -85.67 83.26 1.16 41
8 01/14/2024 20:53:32 74.96,-136.06 96.21 01/14/2024 20:52:27 74.98,-136.14 96.23 2.89 65
9 01/14/2024 21:42:56 -75.04, 31.40 83.72 01/14/2024 21:43:07 -75.02, 31.32 83.74 2.99 11
10 01/14/2024 22:32:30 75.54,-162.35 96.81 01/14/2024 22:33:37 75.53,-159.85 96.74 69.57 67
11 01/17/2024 13:55:05 -75.01, 148.48 84.25 01/17/2024 13:54:46 -75.03, 148.42 84.23 2.60 19



Historial Predications of SNOs between AQUA and METOP-C
